This is the latest recevied weather packets stored in our database for station/object N5PA. If no packets are shown the sender has not sent any weather packets the latest 10 day(s).
| Time | Temp. | Humidity | Pressure | Rain* | Wind** | Luminosity | Snow |
|---|---|---|---|---|---|---|---|
| 1778107506 | 26.11° C | 64% | 1009.7 hPa | 0 mm | - | 990 W/m² | - |
| 1778107206 | 26.11° C | 65% | 1010.1 hPa | 0 mm | - | 990 W/m² | - |
| 1778106905 | 26.11° C | 66% | 1010.2 hPa | 0 mm | - | 993 W/m² | - |
| 1778106605 | 26.11° C | 67% | 1010.3 hPa | 0 mm | - | 991 W/m² | - |
| 1778106304 | 26.11° C | 67% | 1010.3 hPa | 0 mm | - | 986 W/m² | - |
| 1778106005 | 26.11° C | 68% | 1010.4 hPa | 0 mm | - | 991 W/m² | - |
| 1778105705 | 26.11° C | 70% | 1010.5 hPa | 0 mm | - | 986 W/m² | - |
| 1778105405 | 26.67° C | 71% | 1010.4 hPa | 0 mm | - | 991 W/m² | - |
| 1778105106 | 26.67° C | 72% | 1010.6 hPa | 0 mm | - | 986 W/m² | - |
| 1778104805 | 26.67° C | 72% | 1010.7 hPa | 0 mm | - | 986 W/m² | - |
| 1778104506 | 26.67° C | 73% | 1010.8 hPa | 0 mm | - | 988 W/m² | - |
| 1778104205 | 26.67° C | 73% | 1010.9 hPa | 0 mm | - | 990 W/m² | - |
| 1778103906 | 26.67° C | 73% | 1010.8 hPa | 0 mm | - | 984 W/m² | - |
| 1778103606 | 27.22° C | 73% | 1011 hPa | 0 mm | - | 990 W/m² | - |
| 1778103306 | 27.22° C | 73% | 1011.1 hPa | 0 mm | - | 988 W/m² | - |
| 1778103005 | 27.22° C | 73% | 1011.2 hPa | 0 mm | - | 983 W/m² | - |
| 1778102705 | 27.22° C | 73% | 1011.3 hPa | 0 mm | - | 983 W/m² | - |
| 1778102405 | 27.22° C | 73% | 1011.4 hPa | 0 mm | - | 986 W/m² | - |
| 1778102105 | 27.78° C | 73% | 1011.4 hPa | 0 mm | - | 986 W/m² | - |
| 1778101805 | 27.22° C | 73% | 1011.3 hPa | 0 mm | - | 986 W/m² | - |
| 1778101505 | 27.22° C | 73% | 1011.5 hPa | 0 mm | - | 983 W/m² | - |
| 1778101204 | 27.22° C | 73% | 1011.6 hPa | 0 mm | - | 986 W/m² | - |
| 1778100905 | 27.22° C | 73% | 1011.6 hPa | 0 mm | - | 988 W/m² | - |
| 1778100604 | 27.22° C | 73% | 1011.4 hPa | 0 mm | - | 986 W/m² | - |
| 1778100306 | 27.78° C | 73% | 1011.4 hPa | 0 mm | - | 986 W/m² | - |
* Rain latest hour (hover to see other rain measurements)
** Current wind speed in m/s (hover to see current wind gust speed)